Time,TemperatureF,DewpointF,PressureIn,WindDirection,WindDirectionDegrees,WindSpeedMPH,WindSpeedGustMPH,Humidity,HourlyPrecipIn,Conditions,Clouds,dailyrainin,SoftwareType,DateUTC
2013-09-07 00:01:00,77.1,69.7,29.83,NNW,347,6.0,8.0,78,0.00,,,0.34,Wunderground v.1.15,2013-09-07 07:01:00,
2013-09-07 00:06:00,77.2,70.2,29.83,NNW,332,3.0,8.0,79,0.00,,,0.34,Wunderground v.1.15,2013-09-07 07:06:00,
2013-09-07 00:11:00,77.3,70.3,29.83,NNE,18,3.0,7.0,79,0.00,,,0.34,Wunderground v.1.15,2013-09-07 07:11:00,
2013-09-07 00:16:00,77.5,70.1,29.83,NNE,30,3.0,7.0,78,0.00,,,0.34,Wunderground v.1.15,2013-09-07 07:16:00,
2013-09-07 00:21:00,77.6,70.2,29.83,NE,56,1.0,2.0,78,0.00,,,0.34,Wunderground v.1.15,2013-09-07 07:21:00,
2013-09-07 00:26:00,78.0,70.6,29.83,ENE,61,1.0,3.0,78,0.00,,,0.34,Wunderground v.1.15,2013-09-07 07:26:00,
2013-09-07 00:31:00,78.2,70.8,29.83,NNE,20,1.0,4.0,78,0.00,,,0.34,Wunderground v.1.15,2013-09-07 07:31:00,
2013-09-07 00:36:00,78.1,71.1,29.83,NNW,348,0.0,4.0,79,0.00,,,0.34,Wunderground v.1.15,2013-09-07 07:36:00,
2013-09-07 00:41:00,77.9,70.9,29.83,East,80,1.0,2.0,79,0.00,,,0.34,Wunderground v.1.15,2013-09-07 07:41:00,
2013-09-07 00:46:00,78.1,71.1,29.83,North,349,0.0,6.0,79,0.00,,,0.34,Wunderground v.1.15,2013-09-07 07:46:00,
2013-09-07 00:51:00,78.1,71.1,29.83,ESE,105,0.0,1.0,79,0.00,,,0.34,Wunderground v.1.15,2013-09-07 07:51:00,
2013-09-07 00:56:00,77.8,71.1,29.84,ENE,67,1.0,2.0,80,0.00,,,0.34,Wunderground v.1.15,2013-09-07 07:56:00,
2013-09-07 01:01:00,77.9,71.2,29.84,East,88,2.0,4.0,80,0.00,,,0.00,Wunderground v.1.15,2013-09-07 08:01:00,
2013-09-07 01:06:00,78.1,71.4,29.84,NE,56,3.0,5.0,80,0.00,,,0.00,Wunderground v.1.15,2013-09-07 08:06:00,
2013-09-07 01:11:00,78.4,71.7,29.84,NNW,330,2.0,2.0,80,0.00,,,0.00,Wunderground v.1.15,2013-09-07 08:11:00,
2013-09-07 01:16:00,78.4,71.7,29.84,NNW,348,5.0,6.0,80,0.00,,,0.00,Wunderground v.1.15,2013-09-07 08:16:00,
2013-09-07 01:21:00,77.9,71.6,29.84,NNW,336,1.0,3.0,81,0.00,,,0.00,Wunderground v.1.15,2013-09-07 08:21:00,
2013-09-07 01:26:00,77.4,71.8,29.84,NNE,12,0.0,3.0,83,0.00,,,0.00,Wunderground v.1.15,2013-09-07 08:26:00,
2013-09-07 01:31:00,77.1,71.5,29.83,NNW,330,4.0,4.0,83,0.00,,,0.00,Wunderground v.1.15,2013-09-07 08:31:00,
2013-09-07 01:36:00,76.5,71.7,29.83,NNW,338,2.0,4.0,85,0.00,,,0.00,Wunderground v.1.15,2013-09-07 08:36:00,
2013-09-07 01:41:00,76.2,71.7,29.84,ESE,103,1.0,2.0,86,0.00,,,0.00,Wunderground v.1.15,2013-09-07 08:41:00,
2013-09-07 01:46:00,76.3,71.8,29.84,East,93,0.0,2.0,86,0.00,,,0.00,Wunderground v.1.15,2013-09-07 08:46:00,
2013-09-07 01:51:00,76.5,72.0,29.84,NNW,340,0.0,1.0,86,0.00,,,0.00,Wunderground v.1.15,2013-09-07 08:51:00,
2013-09-07 01:56:00,76.7,72.2,29.84,NNW,347,0.0,1.0,86,0.00,,,0.00,Wunderground v.1.15,2013-09-07 08:56:00,
2013-09-07 02:01:00,76.8,71.9,29.84,North,352,0.0,0.0,85,0.00,,,0.00,Wunderground v.1.15,2013-09-07 09:01:00,
2013-09-07 02:06:00,76.9,72.0,29.84,North,349,3.0,3.0,85,0.00,,,0.00,Wunderground v.1.15,2013-09-07 09:06:00,
2013-09-07 02:11:00,76.7,72.2,29.84,North,352,1.0,3.0,86,0.00,,,0.00,Wunderground v.1.15,2013-09-07 09:11:00,
2013-09-07 02:16:00,76.5,72.3,29.84,North,4,0.0,3.0,87,0.00,,,0.00,Wunderground v.1.15,2013-09-07 09:16:00,
2013-09-07 02:21:00,76.4,72.2,29.84,North,355,0.0,2.0,87,0.00,,,0.00,Wunderground v.1.15,2013-09-07 09:21:00,
2013-09-07 02:26:00,76.3,72.1,29.84,ENE,68,0.0,2.0,87,0.00,,,0.00,Wunderground v.1.15,2013-09-07 09:26:00,
2013-09-07 02:31:00,76.6,72.1,29.84,ENE,77,0.0,1.0,86,0.00,,,0.00,Wunderground v.1.15,2013-09-07 09:31:00,
2013-09-07 02:36:00,77.0,72.1,29.84,ENE,76,0.0,1.0,85,0.00,,,0.00,Wunderground v.1.15,2013-09-07 09:36:00,
2013-09-07 02:41:00,77.2,72.0,29.84,ENE,77,0.0,0.0,84,0.00,,,0.00,Wunderground v.1.15,2013-09-07 09:41:00,
2013-09-07 02:46:00,77.5,71.9,29.84,ENE,65,1.0,2.0,83,0.00,,,0.00,Wunderground v.1.15,2013-09-07 09:46:00,
2013-09-07 02:51:00,78.0,72.1,29.84,ENE,75,0.0,0.0,82,0.00,,,0.00,Wunderground v.1.15,2013-09-07 09:51:00,
2013-09-07 02:56:00,78.1,72.2,29.84,ENE,75,0.0,0.0,82,0.00,,,0.00,Wunderground v.1.15,2013-09-07 09:56:00,
2013-09-07 03:01:00,77.9,72.0,29.84,ENE,75,0.0,0.0,82,0.00,,,0.00,Wunderground v.1.15,2013-09-07 10:01:00,
2013-09-07 03:06:00,77.8,71.9,29.84,ENE,72,0.0,1.0,82,0.00,,,0.00,Wunderground v.1.15,2013-09-07 10:06:00,
2013-09-07 03:11:00,77.8,71.9,29.83,ENE,72,0.0,0.0,82,0.00,,,0.00,Wunderground v.1.15,2013-09-07 10:11:00,
2013-09-07 03:16:00,77.8,72.2,29.83,ENE,72,0.0,0.0,83,0.00,,,0.00,Wunderground v.1.15,2013-09-07 10:16:00,
2013-09-07 03:21:00,77.7,72.1,29.83,ENE,74,0.0,1.0,83,0.00,,,0.00,Wunderground v.1.15,2013-09-07 10:21:00,
2013-09-07 03:26:00,77.7,72.5,29.83,ENE,73,0.0,1.0,84,0.00,,,0.00,Wunderground v.1.15,2013-09-07 10:26:00,
2013-09-07 03:31:00,77.9,72.3,29.84,ESE,104,0.0,0.0,83,0.00,,,0.00,Wunderground v.1.15,2013-09-07 10:31:00,
2013-09-07 03:36:00,78.1,72.9,29.84,ESE,104,0.0,0.0,84,0.00,,,0.00,Wunderground v.1.15,2013-09-07 10:36:00,
2013-09-07 03:41:00,78.1,73.2,29.84,ESE,104,0.0,0.0,85,0.00,,,0.00,Wunderground v.1.15,2013-09-07 10:41:00,
2013-09-07 03:46:00,78.0,72.8,29.84,ESE,104,0.0,0.0,84,0.00,,,0.00,Wunderground v.1.15,2013-09-07 10:46:00,
2013-09-07 03:51:00,78.0,72.8,29.84,ESE,104,0.0,0.0,84,0.00,,,0.00,Wunderground v.1.15,2013-09-07 10:51:00,
2013-09-07 03:56:00,77.9,72.3,29.84,ESE,110,0.0,0.0,83,0.00,,,0.00,Wunderground v.1.15,2013-09-07 10:56:00,
2013-09-07 04:01:00,78.0,72.8,29.84,ESE,110,0.0,0.0,84,0.00,,,0.00,Wunderground v.1.15,2013-09-07 11:01:00,
2013-09-07 04:06:00,78.1,72.5,29.84,ESE,110,0.0,0.0,83,0.00,,,0.00,Wunderground v.1.15,2013-09-07 11:06:00,
2013-09-07 04:11:00,78.0,72.1,29.84,ESE,118,0.0,0.0,82,0.00,,,0.00,Wunderground v.1.15,2013-09-07 11:11:00,
2013-09-07 04:16:00,78.2,72.3,29.84,ESE,121,0.0,0.0,82,0.00,,,0.00,Wunderground v.1.15,2013-09-07 11:16:00,
2013-09-07 04:21:00,78.0,72.8,29.84,West,277,1.0,2.0,84,0.00,,,0.00,Wunderground v.1.15,2013-09-07 11:21:00,
2013-09-07 04:26:00,77.4,72.5,29.84,West,270,0.0,2.0,85,0.00,,,0.00,Wunderground v.1.15,2013-09-07 11:26:00,
2013-09-07 04:31:00,77.2,72.7,29.85,WSW,243,0.0,1.0,86,0.00,,,0.00,Wunderground v.1.15,2013-09-07 11:31:00,
2013-09-07 04:36:00,77.3,72.4,29.85,WSW,252,1.0,1.0,85,0.00,,,0.00,Wunderground v.1.15,2013-09-07 11:36:00,
2013-09-07 04:41:00,77.8,72.9,29.85,WSW,249,0.0,1.0,85,0.00,,,0.00,Wunderground v.1.15,2013-09-07 11:41:00,
2013-09-07 04:46:00,77.9,72.0,29.85,SSW,203,0.0,1.0,82,0.00,,,0.00,Wunderground v.1.15,2013-09-07 11:46:00,
2013-09-07 04:51:00,78.1,72.2,29.85,SSW,205,0.0,0.0,82,0.00,,,0.00,Wunderground v.1.15,2013-09-07 11:51:00,
2013-09-07 04:56:00,78.4,72.1,29.85,SSW,205,0.0,0.0,81,0.00,,,0.00,Wunderground v.1.15,2013-09-07 11:56:00,
2013-09-07 05:00:00,78.6,71.9,29.85,NNW,340,0.0,1.0,80,0.00,,,0.00,Wunderground v.1.15,2013-09-07 12:00:00,
2013-09-07 05:05:00,78.8,71.7,29.86,NW,316,0.0,1.0,79,0.00,,,0.00,Wunderground v.1.15,2013-09-07 12:05:00,
2013-09-07 05:10:00,79.1,71.6,29.86,NE,51,0.0,1.0,78,0.00,,,0.00,Wunderground v.1.15,2013-09-07 12:10:00,
2013-09-07 05:15:00,79.2,71.4,29.86,NNW,348,0.0,1.0,77,0.00,,,0.00,Wunderground v.1.15,2013-09-07 12:15:00,
2013-09-07 05:20:00,79.3,71.5,29.87,NW,315,0.0,1.0,77,0.00,,,0.00,Wunderground v.1.15,2013-09-07 12:20:00,
2013-09-07 05:25:00,79.3,71.5,29.87,NNW,330,0.0,1.0,77,0.00,,,0.00,Wunderground v.1.15,2013-09-07 12:25:00,
2013-09-07 05:30:00,79.3,71.1,29.87,NW,316,0.0,0.0,76,0.00,,,0.00,Wunderground v.1.15,2013-09-07 12:30:00,
2013-09-07 05:35:00,79.3,71.1,29.86,NW,312,0.0,0.0,76,0.00,,,0.00,Wunderground v.1.15,2013-09-07 12:35:00,
2013-09-07 05:40:00,79.3,71.1,29.87,NNW,331,0.0,1.0,76,0.00,,,0.00,Wunderground v.1.15,2013-09-07 12:40:00,
2013-09-07 05:45:00,79.4,70.8,29.87,NE,47,0.0,1.0,75,0.00,,,0.00,Wunderground v.1.15,2013-09-07 12:45:00,
2013-09-07 05:50:00,79.5,70.9,29.87,East,88,0.0,0.0,75,0.00,,,0.00,Wunderground v.1.15,2013-09-07 12:50:00,
2013-09-07 05:55:00,79.5,70.9,29.87,North,1,0.0,1.0,75,0.00,,,0.00,Wunderground v.1.15,2013-09-07 12:55:00,
2013-09-07 06:00:00,79.4,70.8,29.87,North,1,0.0,0.0,75,0.00,,,0.00,Wunderground v.1.15,2013-09-07 13:00:00,
2013-09-07 06:05:00,79.3,71.1,29.87,NE,41,0.0,1.0,76,0.00,,,0.00,Wunderground v.1.15,2013-09-07 13:05:00,
2013-09-07 06:10:00,79.2,71.0,29.87,North,11,0.0,0.0,76,0.00,,,0.00,Wunderground v.1.15,2013-09-07 13:10:00,
2013-09-07 06:15:00,79.0,71.2,29.87,NNE,12,0.0,0.0,77,0.00,,,0.00,Wunderground v.1.15,2013-09-07 13:15:00,
2013-09-07 06:20:00,78.9,71.1,29.87,NNE,12,0.0,0.0,77,0.00,,,0.00,Wunderground v.1.15,2013-09-07 13:20:00,
2013-09-07 06:25:00,78.8,71.4,29.87,North,8,0.0,0.0,78,0.00,,,0.00,Wunderground v.1.15,2013-09-07 13:25:00,
2013-09-07 06:30:00,78.6,70.8,29.87,North,9,0.0,0.0,77,0.00,,,0.00,Wunderground v.1.15,2013-09-07 13:30:00,
2013-09-07 06:35:00,78.7,70.5,29.87,North,9,0.0,1.0,76,0.00,,,0.00,Wunderground v.1.15,2013-09-07 13:35:00,
2013-09-07 06:40:00,78.9,70.7,29.87,North,11,0.0,0.0,76,0.00,,,0.00,Wunderground v.1.15,2013-09-07 13:40:00,
2013-09-07 06:45:00,79.2,70.6,29.87,NE,38,0.0,1.0,75,0.00,,,0.00,Wunderground v.1.15,2013-09-07 13:45:00,
2013-09-07 06:50:00,79.4,70.8,29.87,East,96,0.0,0.0,75,0.00,,,0.00,Wunderground v.1.15,2013-09-07 13:50:00,
2013-09-07 06:55:00,79.6,71.0,29.87,East,94,0.0,1.0,75,0.00,,,0.00,Wunderground v.1.15,2013-09-07 13:55:00,
2013-09-07 07:00:00,79.0,72.3,29.87,NW,321,0.0,1.0,80,0.00,,,0.00,Wunderground v.1.15,2013-09-07 14:00:00,
2013-09-07 07:05:00,78.0,72.1,29.87,NW,304,0.0,3.0,82,0.00,,,0.00,Wunderground v.1.15,2013-09-07 14:05:00,
2013-09-07 07:10:00,77.7,71.4,29.87,NW,304,0.0,0.0,81,0.00,,,0.00,Wunderground v.1.15,2013-09-07 14:10:00,
2013-09-07 07:15:00,78.0,71.7,29.87,NW,304,0.0,0.0,81,0.00,,,0.00,Wunderground v.1.15,2013-09-07 14:15:00,
2013-09-07 07:20:00,77.9,72.0,29.87,NNW,330,0.0,0.0,82,0.00,,,0.00,Wunderground v.1.15,2013-09-07 14:20:00,
2013-09-07 07:25:00,77.8,72.2,29.87,North,3,0.0,1.0,83,0.00,,,0.00,Wunderground v.1.15,2013-09-07 14:25:00,
2013-09-07 07:30:00,78.0,72.8,29.87,North,3,0.0,0.0,84,0.00,,,0.00,Wunderground v.1.15,2013-09-07 14:30:00,
2013-09-07 07:35:00,78.0,73.5,29.87,NW,319,2.0,3.0,86,0.00,,,0.00,Wunderground v.1.15,2013-09-07 14:35:00,
2013-09-07 07:40:00,77.5,73.3,29.87,North,354,2.0,2.0,87,0.00,,,0.00,Wunderground v.1.15,2013-09-07 14:40:00,
2013-09-07 07:45:00,77.4,73.6,29.87,North,355,0.0,2.0,88,0.00,,,0.00,Wunderground v.1.15,2013-09-07 14:45:00,
2013-09-07 07:50:00,77.5,73.7,29.87,North,356,0.0,1.0,88,0.00,,,0.00,Wunderground v.1.15,2013-09-07 14:50:00,
2013-09-07 07:55:00,77.6,74.1,29.87,North,355,0.0,1.0,89,0.00,,,0.00,Wunderground v.1.15,2013-09-07 14:55:00,
2013-09-07 08:00:00,77.8,74.3,29.87,North,355,0.0,0.0,89,0.00,,,0.00,Wunderground v.1.15,2013-09-07 15:00:00,
2013-09-07 08:05:00,78.0,74.5,29.88,North,355,0.0,0.0,89,0.00,,,0.00,Wunderground v.1.15,2013-09-07 15:05:00,
2013-09-07 08:10:00,78.2,74.7,29.88,North,355,0.0,0.0,89,0.00,,,0.00,Wunderground v.1.15,2013-09-07 15:10:00,
2013-09-07 08:15:00,78.5,75.0,29.88,North,355,0.0,0.0,89,0.00,,,0.00,Wunderground v.1.15,2013-09-07 15:15:00,
2013-09-07 08:20:00,78.7,74.8,29.88,North,355,0.0,0.0,88,0.00,,,0.00,Wunderground v.1.15,2013-09-07 15:20:00,
2013-09-07 08:25:00,78.9,74.0,29.88,North,354,0.0,0.0,85,0.00,,,0.00,Wunderground v.1.15,2013-09-07 15:25:00,
2013-09-07 08:30:00,79.5,74.2,29.88,North,354,0.0,0.0,84,0.00,,,0.00,Wunderground v.1.15,2013-09-07 15:30:00,
2013-09-07 08:35:00,80.1,73.7,29.88,North,354,0.0,1.0,81,0.00,,,0.00,Wunderground v.1.15,2013-09-07 15:35:00,
2013-09-07 08:40:00,80.7,74.0,29.88,North,352,0.0,0.0,80,0.00,,,0.00,Wunderground v.1.15,2013-09-07 15:40:00,
2013-09-07 08:45:00,80.9,73.4,29.88,NNW,338,1.0,1.0,78,0.00,,,0.00,Wunderground v.1.15,2013-09-07 15:45:00,
2013-09-07 08:50:00,81.0,73.1,29.89,NW,323,1.0,2.0,77,0.00,,,0.00,Wunderground v.1.15,2013-09-07 15:50:00,
2013-09-07 08:55:00,81.2,73.7,29.89,NW,321,1.0,2.0,78,0.00,,,0.00,Wunderground v.1.15,2013-09-07 15:55:00,
2013-09-07 09:00:00,81.3,73.8,29.89,NW,309,1.0,1.0,78,0.00,,,0.00,Wunderground v.1.15,2013-09-07 16:00:00,
2013-09-07 09:05:00,81.3,74.2,29.89,North,350,2.0,3.0,79,0.00,,,0.00,Wunderground v.1.15,2013-09-07 16:05:00,
2013-09-07 09:10:00,81.5,75.1,29.89,NNW,335,0.0,1.0,81,0.00,,,0.00,Wunderground v.1.15,2013-09-07 16:10:00,
2013-09-07 09:15:00,81.8,75.4,29.89,North,352,3.0,3.0,81,0.00,,,0.00,Wunderground v.1.15,2013-09-07 16:15:00,
2013-09-07 09:20:00,81.8,74.6,29.89,NNW,342,1.0,2.0,79,0.00,,,0.00,Wunderground v.1.15,2013-09-07 16:20:00,
2013-09-07 09:25:00,82.0,75.2,29.89,NW,312,2.0,4.0,80,0.00,,,0.00,Wunderground v.1.15,2013-09-07 16:25:00,
2013-09-07 09:30:00,82.3,74.7,29.89,NW,311,1.0,2.0,78,0.00,,,0.00,Wunderground v.1.15,2013-09-07 16:30:00,
2013-09-07 09:35:00,82.7,74.8,29.89,WNW,288,2.0,3.0,77,0.00,,,0.00,Wunderground v.1.15,2013-09-07 16:35:00,
2013-09-07 09:40:00,83.2,75.2,29.89,NW,319,1.0,1.0,77,0.00,,,0.00,Wunderground v.1.15,2013-09-07 16:40:00,
2013-09-07 09:45:00,83.6,74.8,29.89,WNW,283,2.0,2.0,75,0.00,,,0.00,Wunderground v.1.15,2013-09-07 16:45:00,
2013-09-07 09:50:00,84.3,75.5,29.89,NW,319,1.0,1.0,75,0.00,,,0.00,Wunderground v.1.15,2013-09-07 16:50:00,
2013-09-07 09:55:00,84.5,74.9,29.89,NW,307,3.0,4.0,73,0.00,,,0.00,Wunderground v.1.15,2013-09-07 16:55:00,
2013-09-07 10:00:00,84.9,74.9,29.89,NNE,13,3.0,3.0,72,0.00,,,0.00,Wunderground v.1.15,2013-09-07 17:00:00,
2013-09-07 10:05:00,85.5,73.7,29.89,North,4,3.0,5.0,68,0.00,,,0.00,Wunderground v.1.15,2013-09-07 17:05:00,
2013-09-07 10:10:00,85.9,74.1,29.89,North,5,4.0,6.0,68,0.00,,,0.00,Wunderground v.1.15,2013-09-07 17:10:00,
2013-09-07 10:15:00,86.3,73.1,29.89,NNE,19,3.0,6.0,65,0.00,,,0.00,Wunderground v.1.15,2013-09-07 17:15:00,
2013-09-07 10:20:00,86.3,73.1,29.89,North,5,4.0,4.0,65,0.00,,,0.00,Wunderground v.1.15,2013-09-07 17:20:00,
2013-09-07 10:25:00,86.2,72.6,29.89,NNW,346,3.0,4.0,64,0.00,,,0.00,Wunderground v.1.15,2013-09-07 17:25:00,
2013-09-07 10:30:00,86.2,72.1,29.89,NW,307,2.0,3.0,63,0.00,,,0.00,Wunderground v.1.15,2013-09-07 17:30:00,
2013-09-07 10:35:00,86.5,75.5,29.89,North,358,4.0,7.0,70,0.00,,,0.00,Wunderground v.1.15,2013-09-07 17:35:00,
2013-09-07 10:40:00,85.9,74.5,29.89,NNE,33,6.0,7.0,69,0.00,,,0.00,Wunderground v.1.15,2013-09-07 17:40:00,
2013-09-07 10:45:00,85.2,75.1,29.89,NNE,23,7.0,8.0,72,0.00,,,0.00,Wunderground v.1.15,2013-09-07 17:45:00,
2013-09-07 10:50:00,84.6,75.4,29.90,North,11,6.0,7.0,74,0.00,,,0.00,Wunderground v.1.15,2013-09-07 17:50:00,
2013-09-07 10:55:00,84.5,75.3,29.89,NNE,27,4.0,8.0,74,0.00,,,0.00,Wunderground v.1.15,2013-09-07 17:55:00,
2013-09-07 11:00:00,84.8,74.8,29.89,NNW,339,8.0,8.0,72,0.00,,,0.00,Wunderground v.1.15,2013-09-07 18:00:00,
2013-09-07 11:05:00,84.8,73.9,29.90,NNE,26,3.0,8.0,70,0.00,,,0.00,Wunderground v.1.15,2013-09-07 18:05:00,
2013-09-07 11:10:00,84.7,73.4,29.89,North,4,3.0,5.0,69,0.00,,,0.00,Wunderground v.1.15,2013-09-07 18:10:00,
2013-09-07 11:15:00,84.8,74.3,29.89,NNE,15,0.0,5.0,71,0.00,,,0.00,Wunderground v.1.15,2013-09-07 18:15:00,
2013-09-07 11:20:00,85.3,74.0,29.89,North,8,4.0,4.0,69,0.00,,,0.00,Wunderground v.1.15,2013-09-07 18:20:00,
2013-09-07 11:25:00,85.3,74.4,29.89,North,354,3.0,6.0,70,0.00,,,0.00,Wunderground v.1.15,2013-09-07 18:25:00,
2013-09-07 11:30:00,85.5,73.3,29.89,North,358,5.0,5.0,67,0.00,,,0.00,Wunderground v.1.15,2013-09-07 18:30:00,
2013-09-07 11:35:00,85.5,74.6,29.89,North,360,3.0,6.0,70,0.00,,,0.00,Wunderground v.1.15,2013-09-07 18:35:00,
2013-09-07 11:40:00,85.9,73.7,29.89,North,1,3.0,5.0,67,0.00,,,0.00,Wunderground v.1.15,2013-09-07 18:40:00,
2013-09-07 11:45:00,86.3,74.0,29.89,North,359,5.0,7.0,67,0.00,,,0.00,Wunderground v.1.15,2013-09-07 18:45:00,
2013-09-07 11:50:00,86.1,74.3,29.88,NNW,332,5.0,7.0,68,0.00,,,0.00,Wunderground v.1.15,2013-09-07 18:50:00,
2013-09-07 11:55:00,85.9,74.5,29.88,NNE,18,6.0,7.0,69,0.00,,,0.00,Wunderground v.1.15,2013-09-07 18:55:00,
2013-09-07 12:00:00,85.6,74.3,29.88,NNW,340,4.0,6.0,69,0.00,,,0.00,Wunderground v.1.15,2013-09-07 19:00:00,
2013-09-07 12:05:00,85.7,73.9,29.88,NNE,23,2.0,6.0,68,0.00,,,0.00,Wunderground v.1.15,2013-09-07 19:05:00,
2013-09-07 12:10:00,86.1,73.9,29.88,NNE,21,4.0,5.0,67,0.00,,,0.00,Wunderground v.1.15,2013-09-07 19:10:00,
2013-09-07 12:15:00,86.3,74.5,29.88,North,8,6.0,6.0,68,0.00,,,0.00,Wunderground v.1.15,2013-09-07 19:15:00,
2013-09-07 12:20:00,86.3,74.5,29.87,NNW,337,6.0,6.0,68,0.00,,,0.00,Wunderground v.1.15,2013-09-07 19:20:00,
2013-09-07 12:25:00,86.5,74.7,29.87,North,351,6.0,7.0,68,0.00,,,0.00,Wunderground v.1.15,2013-09-07 19:25:00,
2013-09-07 12:30:00,86.7,74.4,29.87,NNW,333,4.0,6.0,67,0.00,,,0.00,Wunderground v.1.15,2013-09-07 19:30:00,
2013-09-07 12:35:00,87.1,73.4,29.87,NNE,25,6.0,8.0,64,0.00,,,0.00,Wunderground v.1.15,2013-09-07 19:35:00,
2013-09-07 12:40:00,87.0,74.3,29.87,North,355,5.0,5.0,66,0.00,,,0.00,Wunderground v.1.15,2013-09-07 19:40:00,
2013-09-07 12:45:00,86.9,73.7,29.87,North,352,1.0,7.0,65,0.00,,,0.00,Wunderground v.1.15,2013-09-07 19:45:00,
2013-09-07 12:50:00,87.4,74.2,29.87,North,354,4.0,4.0,65,0.00,,,0.00,Wunderground v.1.15,2013-09-07 19:50:00,
2013-09-07 12:55:00,87.7,74.9,29.87,NNW,346,4.0,6.0,66,0.00,,,0.00,Wunderground v.1.15,2013-09-07 19:55:00,
2013-09-07 13:00:00,87.4,74.2,29.86,NNW,347,5.0,5.0,65,0.00,,,0.00,Wunderground v.1.15,2013-09-07 20:00:00,
2013-09-07 13:05:00,86.7,74.4,29.86,North,356,3.0,8.0,67,0.00,,,0.00,Wunderground v.1.15,2013-09-07 20:05:00,
2013-09-07 13:10:00,86.9,74.6,29.86,NNW,331,1.0,4.0,67,0.00,,,0.00,Wunderground v.1.15,2013-09-07 20:10:00,
2013-09-07 13:15:00,87.5,73.3,29.86,East,101,0.0,4.0,63,0.00,,,0.00,Wunderground v.1.15,2013-09-07 20:15:00,
2013-09-07 13:20:00,88.6,73.9,29.86,NNE,12,2.0,2.0,62,0.00,,,0.00,Wunderground v.1.15,2013-09-07 20:20:00,
2013-09-07 13:25:00,89.1,74.4,29.85,North,1,5.0,6.0,62,0.00,,,0.00,Wunderground v.1.15,2013-09-07 20:25:00,
2013-09-07 13:30:00,88.4,73.7,29.85,North,9,1.0,2.0,62,0.00,,,0.00,Wunderground v.1.15,2013-09-07 20:30:00,
2013-09-07 13:35:00,88.8,72.1,29.85,NNE,12,4.0,7.0,58,0.00,,,0.00,Wunderground v.1.15,2013-09-07 20:35:00,
2013-09-07 13:40:00,89.4,72.2,29.84,ENE,71,0.0,1.0,57,0.00,,,0.00,Wunderground v.1.15,2013-09-07 20:40:00,
2013-09-07 13:45:00,90.0,72.2,29.84,NW,322,1.0,4.0,56,0.00,,,0.00,Wunderground v.1.15,2013-09-07 20:45:00,
2013-09-07 13:50:00,89.7,74.5,29.84,NNE,23,1.0,2.0,61,0.00,,,0.00,Wunderground v.1.15,2013-09-07 20:50:00,
2013-09-07 13:55:00,89.7,74.5,29.84,NNW,348,2.0,7.0,61,0.00,,,0.00,Wunderground v.1.15,2013-09-07 20:55:00,
2013-09-07 14:00:00,89.6,72.3,29.84,NNE,33,3.0,3.0,57,0.00,,,0.00,Wunderground v.1.15,2013-09-07 21:00:00,
2013-09-07 14:05:00,90.0,70.0,29.83,WSW,249,1.0,7.0,52,0.00,,,0.00,Wunderground v.1.15,2013-09-07 21:05:00,
2013-09-07 14:10:00,90.5,72.1,29.83,NNW,343,4.0,5.0,55,0.00,,,0.00,Wunderground v.1.15,2013-09-07 21:10:00,
2013-09-07 14:15:00,90.5,71.0,29.83,NNW,333,0.0,6.0,53,0.00,,,0.00,Wunderground v.1.15,2013-09-07 21:15:00,
2013-09-07 14:20:00,90.6,71.1,29.83,WNW,295,1.0,2.0,53,0.00,,,0.00,Wunderground v.1.15,2013-09-07 21:20:00,
2013-09-07 14:25:00,91.0,72.0,29.82,NNW,331,6.0,6.0,54,0.00,,,0.00,Wunderground v.1.15,2013-09-07 21:25:00,
2013-09-07 14:30:00,90.8,71.3,29.82,East,87,1.0,2.0,53,0.00,,,0.00,Wunderground v.1.15,2013-09-07 21:30:00,
2013-09-07 14:35:00,92.1,69.6,29.82,NE,40,1.0,6.0,48,0.00,,,0.00,Wunderground v.1.15,2013-09-07 21:35:00,
2013-09-07 14:40:00,93.4,70.8,29.82,East,93,3.0,6.0,48,0.00,,,0.00,Wunderground v.1.15,2013-09-07 21:40:00,
2013-09-07 14:45:00,94.1,70.8,29.81,ENE,60,0.0,6.0,47,0.00,,,0.00,Wunderground v.1.15,2013-09-07 21:45:00,
2013-09-07 14:50:00,94.3,70.3,29.81,East,89,1.0,6.0,46,0.00,,,0.00,Wunderground v.1.15,2013-09-07 21:50:00,
2013-09-07 14:55:00,93.7,71.0,29.81,NNW,335,6.0,8.0,48,0.00,,,0.00,Wunderground v.1.15,2013-09-07 21:55:00,
2013-09-07 15:00:00,93.0,66.5,29.81,North,5,5.0,8.0,42,0.00,,,0.00,Wunderground v.1.15,2013-09-07 22:00:00,
2013-09-07 15:05:00,94.1,68.9,29.80,NNW,329,1.0,5.0,44,0.00,,,0.00,Wunderground v.1.15,2013-09-07 22:05:00,
2013-09-07 15:10:00,94.5,67.9,29.80,NNE,12,2.0,8.0,42,0.00,,,0.00,Wunderground v.1.15,2013-09-07 22:10:00,
2013-09-07 15:14:00,93.0,69.2,29.80,NNW,338,4.0,8.0,46,0.00,,,0.00,Wunderground v.1.15,2013-09-07 22:14:00,
2013-09-07 15:19:00,92.2,69.1,29.80,North,350,3.0,8.0,47,0.00,,,0.00,Wunderground v.1.15,2013-09-07 22:19:00,
2013-09-07 15:24:00,92.4,68.0,29.80,NE,46,2.0,6.0,45,0.00,,,0.00,Wunderground v.1.15,2013-09-07 22:24:00,
2013-09-07 15:29:00,92.2,67.1,29.80,NNW,342,7.0,8.0,44,0.00,,,0.00,Wunderground v.1.15,2013-09-07 22:29:00,
2013-09-07 15:34:00,92.4,71.6,29.80,NNW,347,4.0,7.0,51,0.00,,,0.00,Wunderground v.1.15,2013-09-07 22:34:00,
2013-09-07 15:39:00,92.5,68.7,29.80,NNW,346,4.0,8.0,46,0.00,,,0.00,Wunderground v.1.15,2013-09-07 22:39:00,
2013-09-07 15:44:00,92.3,68.5,29.80,ENE,60,2.0,8.0,46,0.00,,,0.00,Wunderground v.1.15,2013-09-07 22:44:00,
2013-09-07 15:49:00,92.2,71.5,29.79,NNW,339,4.0,8.0,51,0.00,,,0.00,Wunderground v.1.15,2013-09-07 22:49:00,
2013-09-07 15:54:00,91.9,71.2,29.79,NNW,342,2.0,6.0,51,0.00,,,0.00,Wunderground v.1.15,2013-09-07 22:54:00,
2013-09-07 15:59:00,91.6,71.5,29.79,North,11,5.0,7.0,52,0.00,,,0.00,Wunderground v.1.15,2013-09-07 22:59:00,
2013-09-07 16:04:00,91.6,69.1,29.79,NE,41,6.0,8.0,48,0.00,,,0.00,Wunderground v.1.15,2013-09-07 23:04:00,
2013-09-07 16:09:00,91.4,69.0,29.79,NNW,340,3.0,8.0,48,0.00,,,0.00,Wunderground v.1.15,2013-09-07 23:09:00,
2013-09-07 16:14:00,91.5,71.4,29.79,North,8,5.0,8.0,52,0.00,,,0.00,Wunderground v.1.15,2013-09-07 23:14:00,
2013-09-07 16:19:00,91.5,70.2,29.79,NNW,348,7.0,9.0,50,0.00,,,0.00,Wunderground v.1.15,2013-09-07 23:19:00,
2013-09-07 16:24:00,91.9,70.6,29.79,North,353,3.0,6.0,50,0.00,,,0.00,Wunderground v.1.15,2013-09-07 23:24:00,
2013-09-07 16:29:00,91.9,70.6,29.79,NNW,342,7.0,8.0,50,0.00,,,0.00,Wunderground v.1.15,2013-09-07 23:29:00,
2013-09-07 16:34:00,91.6,70.3,29.78,NNW,346,7.0,10.0,50,0.00,,,0.00,Wunderground v.1.15,2013-09-07 23:34:00,
2013-09-07 16:39:00,91.7,69.2,29.79,NNW,333,8.0,10.0,48,0.00,,,0.00,Wunderground v.1.15,2013-09-07 23:39:00,
2013-09-07 16:44:00,92.2,69.1,29.78,NNW,335,3.0,6.0,47,0.00,,,0.00,Wunderground v.1.15,2013-09-07 23:44:00,
2013-09-07 16:49:00,91.4,70.1,29.78,NNW,330,4.0,7.0,50,0.00,,,0.00,Wunderground v.1.15,2013-09-07 23:49:00,
2013-09-07 16:54:00,91.0,69.8,29.78,North,8,4.0,8.0,50,0.00,,,0.00,Wunderground v.1.15,2013-09-07 23:54:00,
2013-09-07 16:59:00,91.2,71.1,29.78,North,6,3.0,8.0,52,0.00,,,0.00,Wunderground v.1.15,2013-09-07 23:59:00,
2013-09-07 17:04:00,91.7,70.4,29.78,NW,326,5.0,8.0,50,0.00,,,0.00,Wunderground v.1.15,2013-09-08 00:04:00,
2013-09-07 17:09:00,92.2,67.1,29.78,NW,319,4.0,8.0,44,0.00,,,0.00,Wunderground v.1.15,2013-09-08 00:09:00,
2013-09-07 17:14:00,92.1,71.4,29.78,NW,326,7.0,9.0,51,0.00,,,0.00,Wunderground v.1.15,2013-09-08 00:14:00,
2013-09-07 17:19:00,91.0,73.1,29.78,North,11,5.0,9.0,56,0.00,,,0.00,Wunderground v.1.15,2013-09-08 00:19:00,
2013-09-07 17:24:00,90.5,72.7,29.78,NNW,330,5.0,7.0,56,0.00,,,0.00,Wunderground v.1.15,2013-09-08 00:24:00,
2013-09-07 17:29:00,90.1,74.3,29.78,NW,319,4.0,7.0,60,0.00,,,0.00,Wunderground v.1.15,2013-09-08 00:29:00,
2013-09-07 17:34:00,89.6,73.4,29.78,NW,311,6.0,8.0,59,0.00,,,0.00,Wunderground v.1.15,2013-09-08 00:34:00,
2013-09-07 17:39:00,89.7,72.4,29.78,NW,316,5.0,8.0,57,0.00,,,0.00,Wunderground v.1.15,2013-09-08 00:39:00,
2013-09-07 17:44:00,89.4,72.7,29.77,NNE,12,3.0,8.0,58,0.00,,,0.00,Wunderground v.1.15,2013-09-08 00:44:00,
2013-09-07 17:49:00,88.9,73.2,29.77,North,6,4.0,8.0,60,0.00,,,0.00,Wunderground v.1.15,2013-09-08 00:49:00,
2013-09-07 17:54:00,88.3,73.1,29.77,North,351,2.0,4.0,61,0.00,,,0.00,Wunderground v.1.15,2013-09-08 00:54:00,
2013-09-07 17:59:00,87.9,73.3,29.77,North,358,3.0,4.0,62,0.00,,,0.00,Wunderground v.1.15,2013-09-08 00:59:00,
2013-09-07 18:04:00,87.5,74.3,29.77,North,355,1.0,3.0,65,0.00,,,0.00,Wunderground v.1.15,2013-09-08 01:04:00,
2013-09-07 18:09:00,87.2,73.1,29.77,NW,326,4.0,5.0,63,0.00,,,0.00,Wunderground v.1.15,2013-09-08 01:09:00,
2013-09-07 18:14:00,86.9,73.3,29.77,NW,316,2.0,4.0,64,0.00,,,0.00,Wunderground v.1.15,2013-09-08 01:14:00,
2013-09-07 18:19:00,86.5,72.9,29.77,North,359,3.0,5.0,64,0.00,,,0.00,Wunderground v.1.15,2013-09-08 01:19:00,
2013-09-07 18:24:00,86.3,72.2,29.77,North,355,2.0,5.0,63,0.00,,,0.00,Wunderground v.1.15,2013-09-08 01:24:00,
2013-09-07 18:29:00,86.0,72.9,29.77,NNW,339,2.0,5.0,65,0.00,,,0.00,Wunderground v.1.15,2013-09-08 01:29:00,
2013-09-07 18:34:00,85.7,72.6,29.77,North,353,1.0,3.0,65,0.00,,,0.00,Wunderground v.1.15,2013-09-08 01:34:00,
2013-09-07 18:39:00,85.5,72.4,29.77,North,4,1.0,3.0,65,0.00,,,0.00,Wunderground v.1.15,2013-09-08 01:39:00,
2013-09-07 18:44:00,85.4,71.8,29.77,North,8,1.0,3.0,64,0.00,,,0.00,Wunderground v.1.15,2013-09-08 01:44:00,
2013-09-07 18:49:00,85.5,71.9,29.77,NNE,13,1.0,3.0,64,0.00,,,0.00,Wunderground v.1.15,2013-09-08 01:49:00,
2013-09-07 18:54:00,85.7,71.7,29.76,North,359,0.0,2.0,63,0.00,,,0.00,Wunderground v.1.15,2013-09-08 01:54:00,
2013-09-07 18:59:00,85.7,72.1,29.76,North,359,0.0,2.0,64,0.00,,,0.00,Wunderground v.1.15,2013-09-08 01:59:00,
2013-09-07 19:04:00,85.6,72.0,29.77,North,359,0.0,1.0,64,0.00,,,0.00,Wunderground v.1.15,2013-09-08 02:04:00,
2013-09-07 19:09:00,85.7,73.0,29.77,North,359,0.0,1.0,66,0.00,,,0.00,Wunderground v.1.15,2013-09-08 02:09:00,
2013-09-07 19:14:00,85.6,72.5,29.77,North,356,0.0,1.0,65,0.00,,,0.00,Wunderground v.1.15,2013-09-08 02:14:00,
2013-09-07 19:19:00,85.4,72.7,29.77,North,357,0.0,1.0,66,0.00,,,0.00,Wunderground v.1.15,2013-09-08 02:19:00,
2013-09-07 19:24:00,85.1,72.0,29.77,North,356,0.0,0.0,65,0.00,,,0.00,Wunderground v.1.15,2013-09-08 02:24:00,
2013-09-07 19:29:00,85.0,71.5,29.77,North,355,0.0,1.0,64,0.00,,,0.00,Wunderground v.1.15,2013-09-08 02:29:00,
2013-09-07 19:34:00,85.2,71.6,29.77,North,355,0.0,1.0,64,0.00,,,0.00,Wunderground v.1.15,2013-09-08 02:34:00,
2013-09-07 19:39:00,85.3,71.3,29.77,North,356,1.0,1.0,63,0.00,,,0.00,Wunderground v.1.15,2013-09-08 02:39:00,
2013-09-07 19:44:00,85.4,71.8,29.77,North,359,0.0,2.0,64,0.00,,,0.00,Wunderground v.1.15,2013-09-08 02:44:00,
2013-09-07 19:49:00,85.4,72.3,29.77,North,355,0.0,2.0,65,0.00,,,0.00,Wunderground v.1.15,2013-09-08 02:49:00,
2013-09-07 19:54:00,85.2,72.6,29.77,North,355,0.0,1.0,66,0.00,,,0.00,Wunderground v.1.15,2013-09-08 02:54:00,
2013-09-07 19:59:00,85.0,72.8,29.77,North,5,0.0,1.0,67,0.00,,,0.00,Wunderground v.1.15,2013-09-08 02:59:00,
2013-09-07 20:04:00,84.9,71.8,29.77,NNW,338,0.0,1.0,65,0.00,,,0.00,Wunderground v.1.15,2013-09-08 03:04:00,
2013-09-07 20:09:00,85.1,72.5,29.77,NNE,15,0.0,1.0,66,0.00,,,0.00,Wunderground v.1.15,2013-09-08 03:09:00,
2013-09-07 20:14:00,85.1,72.5,29.77,NNE,16,0.0,1.0,66,0.00,,,0.00,Wunderground v.1.15,2013-09-08 03:14:00,
2013-09-07 20:19:00,85.1,71.5,29.77,North,355,0.0,1.0,64,0.00,,,0.00,Wunderground v.1.15,2013-09-08 03:19:00,
2013-09-07 20:24:00,85.3,72.6,29.78,North,355,0.0,0.0,66,0.00,,,0.00,Wunderground v.1.15,2013-09-08 03:24:00,
2013-09-07 20:29:00,85.1,70.6,29.78,ENE,76,0.0,1.0,62,0.00,,,0.00,Wunderground v.1.15,2013-09-08 03:29:00,
2013-09-07 20:34:00,85.6,70.1,29.78,ENE,64,0.0,3.0,60,0.00,,,0.00,Wunderground v.1.15,2013-09-08 03:34:00,
2013-09-07 20:39:00,86.0,70.5,29.78,ENE,69,0.0,3.0,60,0.00,,,0.00,Wunderground v.1.15,2013-09-08 03:39:00,
2013-09-07 20:44:00,86.2,70.2,29.78,ENE,69,0.0,1.0,59,0.00,,,0.00,Wunderground v.1.15,2013-09-08 03:44:00,
2013-09-07 20:49:00,86.1,70.1,29.78,ENE,69,0.0,1.0,59,0.00,,,0.00,Wunderground v.1.15,2013-09-08 03:49:00,
2013-09-07 20:54:00,86.0,71.0,29.78,ENE,69,0.0,0.0,61,0.00,,,0.00,Wunderground v.1.15,2013-09-08 03:54:00,
2013-09-07 20:59:00,85.6,72.0,29.78,ENE,69,0.0,0.0,64,0.00,,,0.00,Wunderground v.1.15,2013-09-08 03:59:00,
2013-09-07 21:01:00,85.4,72.3,29.78,ENE,69,0.0,0.0,65,0.00,,,0.00,Wunderground v.1.15,2013-09-08 04:01:00,
2013-09-07 21:06:00,84.2,71.6,29.78,NE,54,0.0,1.0,66,0.00,,,0.00,Wunderground v.1.15,2013-09-08 04:06:00,
2013-09-07 21:11:00,83.9,72.2,29.79,NE,52,0.0,0.0,68,0.00,,,0.00,Wunderground v.1.15,2013-09-08 04:11:00,
2013-09-07 21:16:00,83.6,72.3,29.79,NE,53,0.0,0.0,69,0.00,,,0.00,Wunderground v.1.15,2013-09-08 04:16:00,
2013-09-07 21:21:00,83.3,72.1,29.79,NE,53,0.0,0.0,69,0.00,,,0.00,Wunderground v.1.15,2013-09-08 04:21:00,
2013-09-07 21:26:00,83.0,70.9,29.79,NE,46,0.0,1.0,67,0.00,,,0.00,Wunderground v.1.15,2013-09-08 04:26:00,
2013-09-07 21:31:00,82.8,71.2,29.79,NNE,23,0.0,0.0,68,0.00,,,0.00,Wunderground v.1.15,2013-09-08 04:31:00,
2013-09-07 21:36:00,82.7,71.1,29.79,NNE,23,0.0,0.0,68,0.00,,,0.00,Wunderground v.1.15,2013-09-08 04:36:00,
2013-09-07 21:41:00,82.6,71.0,29.79,NNE,23,0.0,0.0,68,0.00,,,0.00,Wunderground v.1.15,2013-09-08 04:41:00,
2013-09-07 21:46:00,82.7,70.6,29.79,NNE,23,0.0,0.0,67,0.00,,,0.00,Wunderground v.1.15,2013-09-08 04:46:00,
2013-09-07 21:51:00,83.1,72.3,29.79,NNE,23,0.0,0.0,70,0.00,,,0.00,Wunderground v.1.15,2013-09-08 04:51:00,
2013-09-07 21:56:00,82.9,71.3,29.79,NNE,23,0.0,1.0,68,0.00,,,0.00,Wunderground v.1.15,2013-09-08 04:56:00,
2013-09-07 22:01:00,82.6,71.4,29.79,NNE,23,0.0,0.0,69,0.00,,,0.00,Wunderground v.1.15,2013-09-08 05:01:00,
2013-09-07 22:06:00,82.4,71.6,29.79,NNE,23,0.0,1.0,70,0.00,,,0.00,Wunderground v.1.15,2013-09-08 05:06:00,
2013-09-07 22:11:00,82.2,71.9,29.79,NNE,23,0.0,0.0,71,0.00,,,0.00,Wunderground v.1.15,2013-09-08 05:11:00,
2013-09-07 22:16:00,81.9,72.0,29.78,NNE,23,0.0,0.0,72,0.00,,,0.00,Wunderground v.1.15,2013-09-08 05:16:00,
2013-09-07 22:21:00,81.8,72.3,29.78,NNE,23,0.0,0.0,73,0.00,,,0.00,Wunderground v.1.15,2013-09-08 05:21:00,
2013-09-07 22:26:00,81.7,72.2,29.78,NNE,23,0.0,1.0,73,0.00,,,0.00,Wunderground v.1.15,2013-09-08 05:26:00,
2013-09-07 22:31:00,81.5,71.6,29.78,North,6,0.0,2.0,72,0.00,,,0.00,Wunderground v.1.15,2013-09-08 05:31:00,
2013-09-07 22:36:00,81.2,71.3,29.78,North,3,1.0,2.0,72,0.00,,,0.00,Wunderground v.1.15,2013-09-08 05:36:00,
2013-09-07 22:41:00,80.8,71.3,29.78,North,360,0.0,1.0,73,0.00,,,0.00,Wunderground v.1.15,2013-09-08 05:41:00,
2013-09-07 22:46:00,80.6,71.5,29.78,North,358,0.0,1.0,74,0.00,,,0.00,Wunderground v.1.15,2013-09-08 05:46:00,
2013-09-07 22:51:00,80.4,71.3,29.78,ENE,74,0.0,0.0,74,0.00,,,0.00,Wunderground v.1.15,2013-09-08 05:51:00,
2013-09-07 22:56:00,80.4,71.7,29.78,NNW,329,0.0,0.0,75,0.00,,,0.00,Wunderground v.1.15,2013-09-08 05:56:00,
2013-09-07 23:01:00,80.5,71.8,29.78,NNW,328,0.0,1.0,75,0.00,,,0.00,Wunderground v.1.15,2013-09-08 06:01:00,
2013-09-07 23:06:00,80.5,71.8,29.78,NNW,334,0.0,1.0,75,0.00,,,0.00,Wunderground v.1.15,2013-09-08 06:06:00,
2013-09-07 23:11:00,80.6,71.9,29.78,NNW,341,0.0,0.0,75,0.00,,,0.00,Wunderground v.1.15,2013-09-08 06:11:00,
2013-09-07 23:16:00,80.6,72.3,29.78,NNW,341,0.0,0.0,76,0.00,,,0.00,Wunderground v.1.15,2013-09-08 06:16:00,
2013-09-07 23:21:00,80.5,71.8,29.78,NNW,341,0.0,0.0,75,0.00,,,0.00,Wunderground v.1.15,2013-09-08 06:21:00,
2013-09-07 23:26:00,80.4,72.1,29.78,NNW,341,0.0,0.0,76,0.00,,,0.00,Wunderground v.1.15,2013-09-08 06:26:00,
2013-09-07 23:31:00,80.4,73.3,29.78,NNW,341,0.0,0.0,79,0.00,,,0.00,Wunderground v.1.15,2013-09-08 06:31:00,
2013-09-07 23:36:00,80.2,72.7,29.78,NNW,341,0.0,0.0,78,0.00,,,0.00,Wunderground v.1.15,2013-09-08 06:36:00,
2013-09-07 23:41:00,78.9,72.2,29.78,West,274,1.0,3.0,80,0.00,,,0.00,Wunderground v.1.15,2013-09-08 06:41:00,
2013-09-07 23:46:00,79.2,71.7,29.78,West,276,0.0,3.0,78,0.00,,,0.00,Wunderground v.1.15,2013-09-08 06:46:00,
2013-09-07 23:51:00,79.4,71.6,29.78,WNW,295,1.0,1.0,77,0.00,,,0.00,Wunderground v.1.15,2013-09-08 06:51:00,
2013-09-07 23:56:00,79.6,71.4,29.78,WNW,300,0.0,2.0,76,0.00,,,0.00,Wunderground v.1.15,2013-09-08 06:56:00,